Погода в Салтыках

Россия / Рязанская область     53°34′49″N   39°55′24″E
темп.,
°C
ветер,
м/с
пор.,
м/с
влажн.,
%
обл.,
%
осадки,
мм/ч
давл.,
гПа
погр.,
м
24 июля, сб
сб2400:00+15зсз39763 0.0 1009183
03:00+13сз358329 0.0 101087
06:00+15ссз2575100 0.0 1010207
09:00+17сз356494 0.0 1012398
12:00+20ссз345021 0.0 10121088
15:00+21ссз554540 0.0 10131436
18:00+20ссз664842 0.0 1014911
21:00+16с236381 0.0 101647
25 июля, вс
вс2500:00+15св226528 0.0 101819
03:00+14ссз226863 0.0 101913
06:00+15с236581 0.0 102092
09:00+19св225345 0.0 1021542
12:00+22в223972 0.0 10212421
15:00+21ссв324372 0.0 1022993
18:00+21св3344100 0.0 1022636
21:00+18вюв2249100 0.0 102325
26 июля, пн
пн2600:00+18вюв2250100 0.0 102420
03:00+17юв1151100 0.0 102411
06:00+17юв115556 0.0 102521
09:00+22ююв23385 0.0 1025732
12:00+25ююз113010 0.0 10252458
15:00+26ссв122918 0.0 10242629
18:00+25с233483 0.0 10232150
21:00+19с34525 0.0 102354
27 июля, вт
вт2700:00+17ссв22555 0.0 102411
03:00+16ссз225813 0.0 102410
06:00+17с22595 0.0 102443
09:00+23ссз22415 0.0 1024487
12:00+26ссз33340 0.0 10232299
15:00+27сз333167 0.0 10222799
18:00+24сз464595 0.0 1021310
21:00+20ссз22522 0.0 102111
28 июля, ср
ср2800:00+19ссз115547 0.0 102111
03:00+17ссз11635 0.0 102111
06:00+19зюз226130 0.0 102135
09:00+25зюз22411 0.0 1020546
12:00+28юз333123 0.0 10182724
15:00+29юз342928 0.0 10162838
18:00+29ююз343021 0.0 10151670
21:00+22ю4643100 0.0 101492